Location: Waning Moon II Observatory
(30.3730°N, 89.7620°W)
Time: 21:39:33
(UTC-06:00)

Daily predictions for brighter satellites

Satellite Brightness Start Highest point End
(mag) Time Altitude Azimuth Time Altitude Azimuth Time Altitude Azimuth
ATLAS 5 CENTAUR R/B 4.2 17:14:52 10° WSW 17:20:13 40° S 17:44:58 10° ESE
Cosmos 2219 Rocket 3.7 17:42:49 10° SW 17:48:01 38° WNW 17:53:14 10° N
Cosmos 1626 3.5 17:48:23 10° SE 17:51:13 21° E 17:54:04 10° NE
Cosmos 1328 Rocket 4.5 17:49:40 10° NNW 17:54:00 55° W 17:58:20 10° S
MONITOR-E 4.3 17:51:08 10° SSE 17:54:13 55° ENE 17:57:19 10° N
Milstar 3 3.2 17:48:03 10° W 17:55:03 63° SSW 18:01:58 10° ESE
SJ-6B 4.5 17:54:06 10° ESE 17:56:29 15° ENE 17:58:55 10° NNE
Aureole 2 Rocket 2.8 17:53:15 10° SSW 17:56:47 75° WNW 18:00:42 10° NNE
Cosmos 1703 3.8 17:55:52 10° SSE 17:59:29 38° E 18:03:06 10° NNE
Cosmos 1151 Rocket 2.9 17:56:50 10° N 18:01:07 81° E 18:05:25 10° S
SMAP 4.2 17:57:57 10° S 18:02:27 50° W 18:06:58 10° NNW
Cosmos 1515 Rocket 4.4 18:00:16 10° NNW 18:04:38 57° W 18:08:57 10° S
Cosmos 2278 Rocket 2.2 17:59:16 10° NNW 18:04:54 63° ENE 18:10:29 10° SSE
Cosmos 1805 Rocket 3.8 18:01:07 10° SSE 18:05:24 50° E 18:09:43 10° NNE
Cosmos 1455 3.7 18:06:20 10° NE 18:08:45 16° ENE 18:11:11 10° ESE
SKYMED 2 3.9 18:06:46 10° N 18:11:06 72° WNW 18:15:24 10° SSW
Cosmos 1726 2.5 18:08:41 10° NNW 18:12:27 69° W 18:16:11 10° S
Cosmos 372 Rocket 3.9 18:10:54 10° N 18:15:58 68° ENE 18:21:03 10° SSE
FREGAT/IRIS 4.0 18:14:16 10° ESE 18:16:33 19° ENE 18:18:50 10° NNE
Atlas Centaur 2 4.1 18:16:03 10° W 18:20:05 21° SSW 18:23:32 10° SSE
Meteor 1-27 4.3 18:16:26 10° N 18:22:17 81° E 18:28:07 10° S
Sich 1 3.2 18:18:31 10° SSE 18:22:47 49° E 18:27:05 10° NNE
Cosmos 2237 Rocket 3.9 18:18:21 10° SW 18:23:18 32° WNW 18:28:18 10° N
Cosmos 1340 Rocket 3.4 18:19:46 10° SSW 18:23:39 58° W 18:27:32 10° N
USA 215 4.1 18:21:35 14° E 18:25:55 29° NE 18:31:20 10° NNW
Cosmos 1484 Rocket 3.8 18:23:45 10° S 18:27:31 49° W 18:31:23 10° NNW
Cosmos 2058 4.2 18:24:16 10° SSW 18:28:09 41° W 18:32:02 10° N
Cosmos 1300 4.1 18:24:39 10° NNW 18:28:16 41° W 18:31:53 10° SSW
Cosmos 1461 3.9 18:24:48 10° SW 18:28:52 44° WNW 18:32:50 10° NNE
SL-16 R/B 2.4 18:24:26 10° SSW 18:30:04 72° WNW 18:35:43 10° NNE
Cosmos 1633 Rocket 3.2 18:25:59 10° S 18:30:16 53° E 18:34:33 10° NNE
Delta 2 Rocket 4.5 18:34:06 10° SSW 18:36:38 20° SSE 18:37:20 19° SE
Cosmos 2297 3.6 18:41:54 10° NNW 18:47:36 67° ENE 18:53:16 10° SSE
Hubble Space Telescope 3.7 18:46:46 10° SW 18:48:07 11° SSW 18:49:28 10° S
Cosmos 1356 Rocket 4.0 18:45:54 10° SSW 18:49:49 55° W 18:53:45 10° N
OTV 4 0.8 18:47:28 10° WNW 18:50:22 57° SSW 18:50:55 46° SSE
Coronas F rocket 2.4 18:53:18 10° SSW 18:54:53 35° SSW 18:54:53 35° SSW
Aureole 1 Rocket 3.6 18:52:41 10° SSW 18:57:28 85° WNW 19:03:56 10° NNE
Cosmos 1900 4.3 18:54:05 10° NNW 18:59:00 61° ENE 19:01:59 24° SE
Cosmos 1707 Rocket 3.8 18:55:44 10° NNW 19:00:02 69° W 19:04:21 10° S
CZ-3A R/B 3.5 18:56:00 10° NNW 19:00:20 37° NE 19:01:31 34° ENE
Spot 2 Rocket 3.6 18:55:47 10° SE 19:00:35 47° ENE 19:05:24 10° N
Resurs 01 Rocket 3.0 18:57:16 10° SSE 19:03:50 24° NNE 19:05:48 10° N
Cosmos 1184 Rocket 4.2 19:01:07 10° SSW 19:04:17 39° W 19:06:41 15° NNW
FENGYUN 3A 3.6 19:00:39 10° SSE 19:05:53 58° ENE 19:11:09 10° N
Cosmos 1655 Rocket 4.4 19:00:18 10° SSE 19:06:09 39° E 19:06:21 39° E
USA 229 DEB 3.9 19:00:06 10° SW 19:06:55 72° WNW 19:12:13 18° NNE
USA 229 3.8 19:00:12 10° SW 19:07:01 73° WNW 19:12:16 19° NNE
Lacrosse 5 rocket 1.5 19:05:33 10° NW 19:09:26 68° SW 19:10:49 38° SSE
Tiangong 1 2.3 19:06:41 10° SW 19:08:40 38° SW 19:08:40 38° SW
Cosmos 1943 4.1 19:04:51 10° SSE 19:08:34 30° SE 19:08:34 30° SE
Cosmos 1627 Rocket 4.4 19:08:38 10° S 19:14:45 64° E 19:18:21 26° NNE
Cosmos 1933 Rocket 3.4 19:11:41 10° S 19:16:06 82° E 19:16:13 80° ENE
Iridium 4 Rocket 3.3 19:11:37 10° S 19:16:17 70° W 19:19:41 16° N
NOSS 3-1 (A) 4.3 19:15:59 10° S 19:19:22 29° SE 19:19:22 29° SE
ALOS 2.1 19:16:54 10° SSE 19:21:33 88° WSW 19:26:15 10° NNW
Cosmos 923 Rocket 4.2 19:17:05 10° SSW 19:22:15 67° WNW 19:24:47 30° N
FengYun 1-2 T 4.2 19:19:12 10° SSE 19:24:47 86° WSW 19:30:20 10° NNW
Cosmos 1680 Rocket 3.5 19:24:20 10° SSW 19:29:31 77° WNW 19:30:32 57° N
Cosmos 292 Rocket 4.4 19:29:17 10° SSW 19:33:55 54° WNW 19:34:49 46° NNW
Cosmos 1603 4.2 19:29:09 10° SW 19:34:38 56° WNW 19:36:59 33° N
OAO 1 4.5 19:30:59 10° WSW 19:36:11 81° W 19:36:11 81° W
Cosmos 1470 Rocket 4.4 19:33:16 10° SSW 19:37:28 47° W 19:37:52 45° WNW
Intelsat 5-1 Rocket 3.7 19:35:27 10° WSW 19:38:06 28° S 19:38:06 28° S
CCE 1 Rocket 4.5 19:34:52 10° WSW 19:39:28 61° SSE 19:39:28 61° SSE
Cosmos 2026 Rocket 4.0 19:39:40 10° S 19:45:54 77° W 19:47:46 47° N
NOSS 3-1 (C) 3.8 19:54:08 10° SW 19:58:32 55° SW 19:58:32 55° SW
USA 215 3.4 20:08:58 68° W 20:08:58 68° W 20:15:01 10° NW
